AR312 Weather Reports


Display with metric or nautical units.
time (UTC)temp
F
wind
direction
speed
MPH
gust
MPH
rain 1hr
in
rain 24hr
in
rain mn
in
humidity
%
barometer
mb
20260503184004 65 163 1.0 8.0 0.00 0.01 0.01 61 1012.5
20260503183504 64 333 1.0 5.0 0.00 0.01 0.01 61 1012.5
20260503183005 62 239 1.0 6.0 0.00 0.01 0.01 62 1012.5
20260503182505 62 285 0.0 5.0 0.00 0.01 0.01 61 1012.5
20260503182005 61 194 0.0 3.0 0.00 0.01 0.01 63 1012.5
20260503181505 66 0 2.0 2.0 0.00 0.00 0.00 65 1020.0
20260503181004 61 325 1.0 9.0 0.00 0.01 0.01 63 1012.5
20260503180504 61 264 2.0 6.0 0.00 0.01 0.01 65 1012.5
20260503180005 61 232 2.0 5.0 0.00 0.01 0.01 66 1012.5
20260503175504 61 186 3.0 6.0 0.00 0.01 0.01 67 1012.5
20260503174504 60 230 0.0 3.0 0.00 0.01 0.01 69 1012.0
20260503174004 60 197 1.0 5.0 0.00 0.01 0.01 70 1012.0
20260503173504 59 270 1.0 6.0 0.00 0.01 0.01 71 1012.0
20260503173004 59 309 1.0 3.0 0.00 0.01 0.01 71 1012.0
20260503172504 66 0 2.0 2.0 0.00 0.00 0.00 65 1020.0
20260503171505 66 0 2.0 2.0 0.00 0.00 0.00 65 1020.0
20260503171004 66 0 2.0 2.0 0.00 0.00 0.00 65 1020.0
20260503170505 66 0 2.0 2.0 0.00 0.00 0.00 65 1020.0
20260503151005 66 0 2.0 2.0 0.00 0.00 0.00 65 1020.0
20260503150504 66 0 2.0 2.0 0.00 0.00 0.00 65 1020.0
20260503130504 52 250 0.0 0.0 0.00 0.01 0.00 90 1010.3
20260503110505 53 229 0.0 0.0 0.00 0.01 0.00 88 1010.3
20260503090504 66 0 2.0 2.0 0.00 0.00 0.00 65 1020.0
20260503081504 66 0 2.0 2.0 0.00 0.00 0.00 65 1020.0
20260503081004 66 0 2.0 2.0 0.00 0.00 0.00 65 1020.0
20260503080504 66 0 2.0 2.0 0.00 0.00 0.00 65 1020.0
20260503072504 54 113 0.0 0.0 0.00 0.01 0.00 80 1010.8
20260503072004 66 0 2.0 2.0 0.00 0.00 0.00 65 1020.0
20260503071005 66 0 2.0 2.0 0.00 0.00 0.00 65 1020.0
20260503070504 54 113 0.0 0.0 0.00 0.01 0.00 80 1010.8
20260503055004 55 77 0.0 0.0 0.00 0.01 0.01 80 1011.0
20260503054504 55 131 0.0 0.0 0.00 0.01 0.01 80 1011.0
20260503054004 55 131 0.0 0.0 0.00 0.01 0.01 80 1011.0
20260503053004 55 0 0.0 0.0 0.00 0.01 0.01 80 1011.0
20260503052504 55 96 0.0 3.0 0.00 0.01 0.01 80 1011.0
20260503052004 55 130 0.0 0.0 0.00 0.01 0.01 80 1011.0
20260503051505 66 0 2.0 2.0 0.00 0.00 0.00 65 1020.0
20260503050504 55 90 1.0 6.0 0.00 0.01 0.01 79 1011.0
20260503050004 55 156 1.0 3.0 0.00 0.01 0.01 79 1011.0
20260503045504 66 0 2.0 2.0 0.00 0.00 0.00 65 1020.0
20260503045004 55 88 1.0 6.0 0.00 0.01 0.01 79 1010.6
20260503044504 55 121 2.0 5.0 0.00 0.01 0.01 79 1010.6
20260503044004 55 122 1.0 5.0 0.00 0.01 0.01 79 1010.6
20260503043504 55 61 2.0 5.0 0.00 0.01 0.01 79 1010.6
20260503043005 66 0 2.0 2.0 0.00 0.00 0.00 65 1020.0
20260503042505 55 96 0.0 6.0 0.00 0.01 0.01 78 1010.6
20260503042005 55 54 3.0 6.0 0.00 0.01 0.01 78 1010.6
20260503041504 55 115 1.0 6.0 0.00 0.01 0.01 79 1010.3
20260503041004 66 0 2.0 2.0 0.00 0.00 0.00 65 1020.0
20260503040004 66 0 2.0 2.0 0.00 0.00 0.00 65 1020.0
20260503035504 55 67 0.0 6.0 0.00 0.01 0.01 79 1009.9
20260503035004 66 0 2.0 2.0 0.00 0.00 0.00 65 1020.0
20260503034004 55 79 1.0 5.0 0.00 0.01 0.01 79 1009.9
20260503033505 55 53 4.0 5.0 0.00 0.01 0.01 79 1009.9
20260503033004 55 101 1.0 3.0 0.00 0.01 0.01 79 1009.9
20260503032505 55 68 1.0 3.0 0.00 0.01 0.01 79 1009.9
20260503032004 66 0 2.0 2.0 0.00 0.00 0.00 65 1020.0
20260503031505 66 0 2.0 2.0 0.00 0.00 0.00 65 1020.0
20260503031004 66 0 2.0 2.0 0.00 0.00 0.00 65 1020.0
20260503030504 56 147 1.0 6.0 0.00 0.01 0.01 79 1009.8
20260503025504 66 0 2.0 2.0 0.00 0.00 0.00 65 1020.0
20260503024504 66 0 2.0 2.0 0.00 0.00 0.00 65 1020.0
20260503024005 56 139 2.0 7.0 0.00 0.01 0.01 77 1009.7
20260503023505 57 138 0.0 3.0 0.00 0.01 0.01 76 1009.7
20260503023004 57 131 2.0 6.0 0.00 0.01 0.01 76 1009.7
20260503022504 57 134 0.0 3.0 0.00 0.01 0.01 75 1009.7
20260503022004 66 0 2.0 2.0 0.00 0.00 0.00 65 1020.0
20260503021504 66 0 2.0 2.0 0.00 0.00 0.00 65 1020.0
20260503021004 58 143 0.0 3.0 0.00 0.01 0.01 74 1009.8
20260503020504 58 142 2.0 7.0 0.00 0.01 0.01 73 1009.8
20260503020004 66 0 2.0 2.0 0.00 0.00 0.00 65 1020.0
20260503015504 66 0 2.0 2.0 0.00 0.00 0.00 65 1020.0
20260503015005 58 134 4.0 6.0 0.00 0.01 0.01 72 1009.9
20260503014504 59 108 0.0 3.0 0.00 0.01 0.01 72 1009.9
20260503014004 59 132 2.0 7.0 0.00 0.01 0.01 72 1009.9
20260503013004 59 148 2.0 6.0 0.00 0.01 0.01 71 1009.9
20260503012505 59 156 3.0 6.0 0.00 0.01 0.01 70 1009.9
20260503012004 60 148 1.0 3.0 0.00 0.01 0.01 70 1009.9
20260503011004 60 127 1.0 3.0 0.00 0.01 0.01 70 1009.9
20260503010504 60 185 2.0 6.0 0.00 0.01 0.01 70 1009.9
20260503010004 60 144 3.0 6.0 0.00 0.01 0.01 69 1009.9
20260503005505 66 0 2.0 2.0 0.00 0.00 0.00 65 1020.0
20260503005004 60 141 2.0 3.0 0.00 0.01 0.01 69 1009.9
20260503004504 66 0 2.0 2.0 0.00 0.00 0.00 65 1020.0
20260503004004 66 0 2.0 2.0 0.00 0.00 0.00 65 1020.0
20260503003504 61 132 2.0 7.0 0.00 0.01 0.01 67 1009.9
20260503003004 62 107 2.0 7.0 0.00 0.01 0.01 66 1010.1
20260503002004 66 0 2.0 2.0 0.00 0.00 0.00 65 1020.0
20260503001504 66 0 2.0 2.0 0.00 0.00 0.00 65 1020.0
20260503001004 62 148 4.0 7.0 0.00 0.01 0.01 65 1010.1
20260503000504 62 172 2.0 7.0 0.00 0.01 0.01 66 1010.1
20260503000005 62 154 4.0 7.0 0.00 0.01 0.01 66 1010.1
20260502235004 66 0 2.0 2.0 0.00 0.00 0.00 65 1020.0
20260502234504 63 188 3.0 6.0 0.00 0.01 0.01 65 1010.4
20260502233004 63 157 2.0 6.0 0.00 0.01 0.01 65 1011.4
20260502232504 63 170 5.0 8.0 0.00 0.01 0.01 64 1011.4
20260502232005 63 177 1.0 3.0 0.00 0.01 0.01 66 1011.4
20260502231504 62 155 3.0 7.0 0.00 0.01 0.01 65 1011.4
20260502231004 63 156 4.0 7.0 0.00 0.01 0.01 65 1011.4
20260502230504 63 151 3.0 7.0 0.00 0.01 0.01 66 1011.4
20260502230004 63 146 3.0 7.0 0.00 0.01 0.01 65 1011.4
20260502225504 66 0 2.0 2.0 0.00 0.00 0.00 65 1020.0
20260502225004 66 0 2.0 2.0 0.00 0.00 0.00 65 1020.0
20260502224504 62 204 2.0 7.0 0.00 0.01 0.01 66 1011.4
20260502224005 66 0 2.0 2.0 0.00 0.00 0.00 65 1020.0
20260502223505 63 180 2.0 7.0 0.00 0.01 0.01 68 1011.4
20260502223005 66 0 2.0 2.0 0.00 0.00 0.00 65 1020.0
20260502222505 62 144 3.0 6.0 0.00 0.01 0.01 68 1012.1
20260502222004 62 232 1.0 5.0 0.00 0.01 0.01 68 1012.1
20260502221504 61 181 1.0 5.0 0.00 0.01 0.01 70 1012.1
20260502221004 61 158 3.0 7.0 0.00 0.01 0.01 70 1012.1
20260502220504 61 167 2.0 6.0 0.00 0.01 0.01 71 1012.1
20260502220004 61 141 2.0 6.0 0.00 0.01 0.01 71 1012.1
20260502215504 66 0 2.0 2.0 0.00 0.00 0.00 65 1020.0
20260502215004 66 0 2.0 2.0 0.00 0.00 0.00 65 1020.0
20260502214505 60 140 2.0 6.0 0.00 0.01 0.01 71 1012.6
20260502214004 61 142 4.0 8.0 0.00 0.01 0.01 70 1012.6
20260502213504 66 0 2.0 2.0 0.00 0.00 0.00 65 1020.0
20260502213004 66 0 2.0 2.0 0.00 0.00 0.00 65 1020.0
20260502212504 66 0 2.0 2.0 0.00 0.00 0.00 65 1020.0
20260502212004 60 248 1.0 5.0 0.00 0.01 0.01 75 1012.6
20260502211504 60 165 1.0 2.0 0.00 0.01 0.01 75 1012.6
20260502211004 60 182 0.0 3.0 0.00 0.01 0.01 75 1012.6
20260502210504 66 0 2.0 2.0 0.00 0.00 0.00 65 1020.0
20260502210004 66 0 2.0 2.0 0.00 0.00 0.00 65 1020.0
20260502205504 59 179 1.0 3.0 0.00 0.01 0.01 76 1012.6
20260502204505 66 0 2.0 2.0 0.00 0.00 0.00 65 1020.0
20260502204004 58 145 1.0 3.0 0.00 0.01 0.01 78 1012.9
20260502203504 66 0 2.0 2.0 0.00 0.00 0.00 65 1020.0
20260502203004 66 0 2.0 2.0 0.00 0.00 0.00 65 1020.0
20260502202504 66 0 2.0 2.0 0.00 0.00 0.00 65 1020.0
20260502202004 66 0 2.0 2.0 0.00 0.00 0.00 65 1020.0
20260502201504 58 167 1.0 6.0 0.00 0.01 0.01 80 1013.2
20260502201004 58 169 1.0 5.0 0.00 0.01 0.01 79 1013.6
20260502200504 66 0 2.0 2.0 0.00 0.00 0.00 65 1020.0
20260502195004 66 0 2.0 2.0 0.00 0.00 0.00 65 1020.0
20260502194504 58 203 2.0 5.0 0.00 0.01 0.01 80 1013.6
20260502194005 58 154 0.0 1.0 0.00 0.01 0.01 80 1013.6
20260502193504 57 123 1.0 5.0 0.00 0.01 0.01 80 1013.6
20260502193004 58 153 2.0 6.0 0.00 0.01 0.01 80 1013.6
20260502192505 57 250 0.0 3.0 0.00 0.01 0.01 81 1013.6
20260502192004 66 0 2.0 2.0 0.00 0.00 0.00 65 1020.0
20260502191504 66 0 2.0 2.0 0.00 0.00 0.00 65 1020.0
20260502191004 66 0 2.0 2.0 0.00 0.00 0.00 65 1020.0
20260502190504 66 0 2.0 2.0 0.00 0.00 0.00 65 1020.0
20260502190004 57 185 1.0 6.0 0.00 0.01 0.01 80 1013.6
20260502185504 66 0 2.0 2.0 0.00 0.00 0.00 65 1020.0
20260502185004 66 0 2.0 2.0 0.00 0.00 0.00 65 1020.0